Location: Sternwarte ZA, Rosenfeld-Brittheim
(48.2889°N, 8.6789°E)
Time: 18:14:55
(UTC+02:00)

X-37B - Pass Details

Date: 25 September 2021
Orbit: 445 x 447 km, 45.0° (Epoch: 24 October)

Event Time Altitude Azimuth Distance (km) Brightness Sun altitude
Exits shadow 04:18:02 10° 109° (ESE) 1,591 4.1 -28.7°
Enters shadow 05:15:35 -68° 259° (WSW) 12,315 8.1 -20.4°
Maximum altitude 05:53:03 40° 168° (SSE) 666 1.7 -14.5°
